EW9826 Weather Reports


Display with metric or nautical units.
time (UTC)temp
F
wind
direction
speed
MPH
gust
MPH
rain 1hr
in
rain 24hr
in
rain mn
in
humidity
%
barometer
mb
20260901141053 70 246 4.0 10.0 0.00 0.14 0.00 60 1020.2
20260901140052 70 302 5.0 9.0 0.00 0.14 0.00 60 1020.3
20260901135552 70 295 4.0 8.0 0.00 0.14 0.00 60 1020.4
20260901133552 69 294 5.0 12.0 0.00 0.14 0.00 61 1020.3
20260901132052 69 312 7.0 12.0 0.00 0.14 0.00 60 1020.4
20260901131552 69 298 9.0 14.0 0.00 0.14 0.00 60 1020.4
20260901124552 69 297 7.0 13.0 0.00 0.14 0.00 59 1020.4
20260901124052 70 297 7.0 14.0 0.00 0.14 0.00 60 1020.4
20260901123552 70 303 7.0 12.0 0.00 0.14 0.00 61 1020.4
20260901122552 69 282 5.0 13.0 0.00 0.14 0.00 63 1020.4
20260901122052 68 289 7.0 12.0 0.00 0.14 0.00 64 1020.4
20260901121552 69 306 9.0 14.0 0.00 0.14 0.00 64 1020.4
20260901121052 68 252 5.0 12.0 0.00 0.14 0.00 66 1020.5
20260901115552 69 314 6.0 16.0 0.00 0.14 0.00 65 1020.4
20260901115053 69 306 6.0 13.0 0.00 0.14 0.00 66 1020.4
20260901114553 69 298 8.0 17.0 0.00 0.14 0.00 65 1020.4
20260901114052 69 275 7.0 16.0 0.00 0.14 0.00 65 1020.4
20260901113552 68 270 5.0 13.0 0.00 0.14 0.00 65 1020.4
20260901113052 68 283 8.0 14.0 0.00 0.14 0.00 62 1020.4
20260901112552 69 281 7.0 14.0 0.00 0.17 0.00 63 1020.4
20260901112053 69 248 6.0 12.0 0.00 0.19 0.00 65 1020.3
20260901111551 68 294 7.0 12.0 0.00 0.20 0.00 64 1020.3
20260901110052 68 301 7.0 13.0 0.00 0.22 0.00 65 1020.4
20260901104552 68 304 6.0 14.0 0.00 0.22 0.00 66 1020.2
20260901104052 68 304 7.0 14.0 0.00 0.23 0.00 67 1020.2
20260901103552 68 300 7.0 13.0 0.00 0.23 0.00 66 1020.1
20260901100052 67 283 5.0 12.0 0.00 0.25 0.00 68 1020.0
20260901095552 67 280 8.0 18.0 0.00 0.25 0.00 68 1020.0
20260901095052 67 273 6.0 12.0 0.00 0.25 0.00 70 1020.0
20260901094552 66 283 7.0 12.0 0.00 0.25 0.00 71 1020.0
20260901093052 67 308 5.0 13.0 0.00 0.25 0.00 71 1019.9
20260901092552 67 286 8.0 14.0 0.00 0.25 0.00 70 1019.9
20260901092052 67 307 6.0 12.0 0.00 0.25 0.00 70 1019.9
20260901091551 67 255 6.0 14.0 0.00 0.25 0.00 70 1019.8
20260901091052 67 303 9.0 17.0 0.00 0.25 0.00 70 1019.8
20260901081052 66 295 7.0 13.0 0.00 0.25 0.00 73 1019.4
20260901073052 65 312 5.0 12.0 0.00 0.27 0.00 79 1018.9
20260901072551 65 298 5.0 9.0 0.00 0.27 0.00 79 1018.9
20260901072053 65 291 3.0 8.0 0.00 0.27 0.00 81 1018.8
20260901071551 65 286 4.0 7.0 0.00 0.27 0.00 81 1018.8
20260901071053 64 271 3.0 8.0 0.00 0.27 0.00 82 1018.7
20260901070051 64 299 2.0 3.0 0.00 0.27 0.00 86 1018.5
20260901065052 64 299 1.0 3.0 0.00 0.27 0.00 87 1018.4
20260901064552 63 299 2.0 3.0 0.00 0.27 0.00 87 1018.4
20260901063053 63 299 1.0 5.0 0.00 0.28 0.00 89 1018.4
20260901062551 62 299 1.0 3.0 0.00 0.28 0.00 90 1018.4
20260901060051 62 299 0.0 2.0 0.00 0.28 0.00 92 1018.2
20260901055052 62 299 0.0 3.0 0.00 0.28 0.00 93 1018.2
20260901054551 62 299 2.0 3.0 0.00 0.28 0.00 93 1018.0
20260901054052 62 299 2.0 3.0 0.00 0.29 0.00 93 1017.9
20260901053551 62 299 1.0 3.0 0.00 0.31 0.00 93 1017.9
20260901052052 61 299 1.0 2.0 0.00 0.32 0.00 93 1017.8
20260901051552 61 299 0.0 0.0 0.00 0.32 0.00 93 1017.7
20260901051053 62 299 1.0 2.0 0.00 0.32 0.00 93 1017.5
20260901050051 62 299 0.0 0.0 0.00 0.32 0.00 93 1017.4
20260901045551 62 299 1.0 3.0 0.00 0.32 0.00 93 1017.4
20260901043052 62 299 0.0 0.0 0.00 0.32 0.00 94 1017.4
20260901042551 62 299 0.0 0.0 0.00 0.32 0.00 94 1017.4
20260901042052 61 299 0.0 0.0 0.00 0.32 0.00 94 1017.3
20260901040052 61 299 0.0 0.0 0.00 0.32 0.00 94 1017.1
20260901034052 61 299 0.0 2.0 0.00 0.32 0.00 94 1017.0
20260901033552 62 299 0.0 2.0 0.00 0.32 0.00 94 1017.0
20260901030051 62 299 0.0 2.0 0.00 0.32 0.00 95 1016.9
20260901025551 62 299 1.0 3.0 0.00 0.32 0.00 95 1016.9
20260901024552 61 299 1.0 2.0 0.00 0.32 0.00 94 1016.9
20260901024052 61 299 0.0 2.0 0.00 0.32 0.00 94 1016.8
20260901023551 61 299 0.0 2.0 0.00 0.32 0.00 94 1016.8
20260901023052 61 299 1.0 2.0 0.00 0.32 0.00 94 1016.8
20260901022552 61 299 0.0 1.0 0.00 0.32 0.00 94 1016.8
20260901020051 61 299 0.0 1.0 0.00 0.32 0.00 94 1016.8
20260901015551 61 299 1.0 2.0 0.00 0.32 0.00 94 1016.8
20260901010051 60 299 1.0 2.0 0.00 0.32 0.00 94 1016.6
20260901005551 60 299 1.0 3.0 0.00 0.32 0.00 94 1016.7
20260901005052 60 299 2.0 3.0 0.00 0.32 0.00 93 1016.7
20260901004551 60 299 2.0 3.0 0.00 0.32 0.00 93 1016.6
20260901004052 60 300 1.0 3.0 0.00 0.32 0.00 93 1016.7
20260901003551 60 300 2.0 3.0 0.00 0.32 0.00 93 1016.6
20260901003052 60 300 2.0 3.0 0.00 0.32 0.00 93 1016.6
20260901000051 61 300 1.0 2.0 0.00 0.32 0.00 93 1016.4
20260831235551 61 300 0.0 2.0 0.00 0.32 0.00 93 1016.3
20260831233551 61 300 2.0 3.0 0.00 0.32 0.00 93 1016.3
20260831232551 61 300 2.0 3.0 0.00 0.33 0.00 93 1016.3
20260831232051 61 301 2.0 3.0 0.00 0.33 0.00 93 1016.3
20260831225051 61 304 0.0 2.0 0.01 0.33 0.00 92 1016.2
20260831224551 61 304 1.0 3.0 0.01 0.33 0.00 92 1016.1
20260831223551 61 304 2.0 3.0 0.03 0.33 0.00 92 1015.9
20260831223051 61 304 0.0 0.0 0.04 0.33 0.00 91 1015.9
20260831222551 61 304 0.0 1.0 0.09 0.33 0.00 91 1015.8
20260831222052 61 304 0.0 2.0 0.14 0.33 0.00 91 1015.8
20260831221550 62 304 0.0 1.0 0.14 0.33 0.00 91 1015.8
20260831221053 62 304 1.0 3.0 0.14 0.33 0.00 90 1015.8
20260831220051 62 304 1.0 2.0 0.14 0.33 0.00 90 1015.8
20260831214551 63 304 0.0 2.0 0.13 0.32 0.32 88 1015.8
20260831213051 64 293 4.0 9.0 0.11 0.30 0.30 86 1016.2
20260831212551 65 315 11.0 22.0 0.09 0.28 0.28 84 1016.3
20260831212051 66 248 2.0 3.0 0.00 0.19 0.19 84 1015.6
20260831211551 66 248 2.0 3.0 0.00 0.19 0.19 83 1015.3
20260831211051 66 248 1.0 3.0 0.00 0.19 0.19 83 1015.3
20260831205550 66 248 1.0 3.0 0.00 0.19 0.19 81 1015.3
20260831204051 66 248 0.0 2.0 0.00 0.23 0.19 80 1015.2
20260831203551 66 248 1.0 3.0 0.00 0.23 0.19 79 1015.2
20260831203052 67 248 1.0 3.0 0.00 0.24 0.19 79 1015.2
20260831202051 67 249 3.0 5.0 0.00 0.33 0.19 78 1015.1
20260831201551 67 250 2.0 3.0 0.00 0.44 0.19 78 1015.0
20260831201052 67 250 1.0 6.0 0.00 0.45 0.19 78 1014.9
20260831200051 67 250 2.0 5.0 0.00 0.45 0.19 78 1014.8
20260831195551 68 250 3.0 8.0 0.00 0.45 0.19 78 1014.8
20260831195051 67 250 3.0 8.0 0.00 0.45 0.19 78 1014.8
20260831194550 67 250 3.0 6.0 0.00 0.45 0.19 78 1014.8
20260831194051 67 246 3.0 8.0 0.00 0.45 0.19 78 1014.8
20260831193550 67 247 3.0 6.0 0.00 0.45 0.19 78 1014.8
20260831192051 67 247 2.0 7.0 0.00 0.45 0.19 77 1014.6
20260831191550 67 236 3.0 10.0 0.00 0.45 0.19 77 1014.6
20260831191051 67 261 3.0 8.0 0.00 0.45 0.19 77 1014.4
20260831190050 68 249 3.0 7.0 0.00 0.45 0.19 76 1014.3
20260831185550 68 264 5.0 7.0 0.00 0.45 0.19 76 1014.3
20260831184051 68 259 4.0 9.0 0.00 0.45 0.19 76 1014.2
20260831183550 68 297 3.0 10.0 0.00 0.45 0.19 75 1014.0
20260831182550 68 243 3.0 13.0 0.00 0.45 0.19 75 1013.8
20260831182051 68 256 4.0 15.0 0.00 0.45 0.19 74 1013.8
20260831175051 68 253 6.0 13.0 0.00 0.45 0.19 74 1013.4
20260831174550 68 270 6.0 13.0 0.00 0.45 0.19 74 1013.3
20260831171551 69 287 5.0 15.0 0.00 0.45 0.19 72 1013.0
20260831171050 69 273 7.0 18.0 0.00 0.45 0.19 72 1012.8
20260831170050 69 261 6.0 13.0 0.00 0.45 0.19 73 1012.7
20260831165550 69 273 8.0 15.0 0.00 0.45 0.19 72 1012.7
20260831165050 69 271 7.0 13.0 0.00 0.45 0.19 72 1012.7
20260831164550 69 266 4.0 13.0 0.00 0.45 0.19 72 1012.7
20260831162550 68 281 9.0 15.0 0.00 0.45 0.19 73 1012.5
20260831162050 68 288 10.0 17.0 0.00 0.45 0.19 74 1012.5
20260831160050 68 293 7.0 14.0 0.00 0.45 0.19 75 1012.2
20260831155549 68 288 5.0 12.0 0.00 0.45 0.19 75 1012.2
20260831151550 68 288 8.0 20.0 0.00 0.45 0.19 73 1011.9
20260831151051 68 277 7.0 22.0 0.00 0.45 0.19 73 1011.8
20260831150050 68 246 10.0 20.0 0.00 0.45 0.19 72 1011.7
20260831145550 68 290 7.0 20.0 0.00 0.45 0.19 72 1011.7
20260831143051 67 297 6.0 12.0 0.00 0.45 0.19 77 1011.3
20260831142550 66 269 5.0 10.0 0.00 0.45 0.19 78 1011.2
20260831142050 66 289 7.0 16.0 0.00 0.45 0.19 78 1011.2
20260831141549 66 277 6.0 13.0 0.00 0.45 0.19 78 1011.1